www.pogodaiklimat.ru

Погода и климат >> Архив погоды >> Норвегия >> Эвенстад


ПОГОДА в Эвенстаде

  • Прогноз погоды в Эвенстаде
  • Монитор погоды в Эвенстаде

АРХИВ ПОГОДЫ в Эвенстаде

Время (UTC), дата Ветер
(напр.,м/с)
 
Видим.   Явления Облачность Т
(С)
Тd
(С)
f
(%)
Тe
(С)
Тes
(С)
Комфортность P
(гПа)
Po
(гПа)
Тmin
(С)
Tmax
(С)
R
(мм)
R24
(мм)
S
(см)
07 9.09 штиль 0
{2}
н/о н/о +10.2 +8.0 86 +9 +9 1021.8 990.8
08 9.09 З 1
{2}
н/о н/о +12.4 +8.3 76 +12 +12 1021.8 991.0
09 9.09 Ю 1
{2}
н/о н/о +13.6 +7.4 66 +14 +14 1021.4 990.8
10 9.09 ЮВ 1
{2}
н/о н/о +15.9 +8.4 61 +17 +17 1019.9 989.6
11 9.09 С 1
{3}
н/о н/о +15.8 +8.1 60 +17 +17 1019.3 989.0
12 9.09 штиль 0
{3}
н/о н/о +15.6 +8.1 61 +15 +15 1019.2 988.8
13 9.09 ЮВ 1
{2}
н/о н/о +15.4 +7.7 60 +16 +16 1018.8 988.4
14 9.09 СВ 1
{2}
н/о н/о +15.1 +8.1 63 +16 +16 1018.7 988.3
15 9.09 С 1
{1}
н/о н/о +13.9 +10.9 82 +14 +14 1018.5 988.0
16 9.09 СВ 1
{1}
н/о н/о +13.1 +11.3 89 +13 +13 1018.4 987.8
17 9.09 ЮВ 1
{2}
н/о н/о +12.3 +10.9 91 +12 +12 1018.5 987.8
18 9.09 З 1
{3}
н/о н/о +12.0 +10.6 91 +12 +12 1018.7 988.0 +7.7 +16.7
19 9.09 В 1
{2}
н/о н/о +11.6 +10.5 93 +11 +11 1018.6 987.9
20 9.09 штиль 0
{1}
н/о н/о +11.2 +10.4 95 +10 +10 1018.6 987.8
21 9.09 штиль 0
{1}
н/о н/о +11.0 +10.4 96 +10 +10 1018.4 987.6
22 9.09 штиль 0
{1}
н/о н/о +11.0 +10.2 95 +10 +10 1018.5 987.7
23 9.09 ЮЗ 1
{1}
н/о н/о +10.8 +10.5 98 +10 +10 1018.3 987.5
00 10.09
{2}
н/о н/о +10.7 +10.4 98 1018.0 987.2
01 10.09 штиль 0
{2}
н/о н/о +10.6 +10.3 98 +10 +10 1017.8 987.0
02 10.09 С 1
{1}
н/о н/о +10.6 +10.5 99 +10 +10 1017.4 986.6
03 10.09
{2}
н/о н/о +10.5 +10.4 99 1016.8 986.0
04 10.09
{3}
н/о н/о +10.5 +10.4 99 1017.0 986.2
05 10.09 штиль 0
{1}
н/о н/о +10.5 +10.4 99 +10 +10 1017.1 986.3
06 10.09 штиль 0
{3}
н/о н/о +10.7 +10.6 99 +10 +10 1016.9 986.1 +10.5 +12.0
07 10.09 СЗ 1
{3}
н/о н/о +10.9 +10.8 99 +10 +10 1017.0 986.2
08 10.09 СЗ 1
{2}
н/о н/о +11.1 +10.8 98 +11 +11 1016.8 986.1
09 10.09 СЗ 2
{5}
н/о н/о +12.4 +11.5 94 +11 +11 1016.2 985.6
10 10.09 З 1
{6}
н/о н/о +12.6 +12.0 96 +13 +13 1015.8 985.2
11 10.09 СЗ 2
{5}
н/о н/о +13.4 +12.5 94 +13 +13 1015.3 984.8
12 10.09 СЗ 2
{6}
н/о н/о +14.8 +12.7 87 +14 +14 1014.8 984.5
13 10.09 З 2
{4}
н/о н/о +15.2 +12.9 86 +15 +15 1014.4 984.2
14 10.09 З 1
{3}
н/о н/о +14.8 +13.0 89 +15 +15 1014.0 983.7
15 10.09 СЗ 1
{4}
н/о н/о +15.2 +12.5 84 +16 +16 1013.4 983.2
16 10.09 СЗ 1
{3}
н/о н/о +15.1 +12.4 84 +16 +16 1012.9 982.7
17 10.09 СЗ 1
{2}
н/о н/о +14.5 +12.5 88 +15 +15 1012.3 982.1
18 10.09 штиль 0
{4}
н/о н/о +12.1 +11.5 96 +11 +11 1012.2 981.7 +10.7 +15.9
19 10.09 штиль 0
{1}
н/о н/о +11.2 +10.9 98 +10 +10 1012.8 982.2
20 10.09 штиль 0
{1}
н/о н/о +11.6 +11.5 99 +11 +11 1012.7 982.1
21 10.09 ЮВ 1
{2}
н/о н/о +11.8 +11.7 99 +12 +12 1012.1 981.6
22 10.09 ЮВ 1
{2}
н/о н/о +11.7 +11.6 99 +11 +11 1011.6 981.1
23 10.09 В 2
{3}
н/о н/о +12.1 +11.8 98 +11 +11 1010.7 980.2
00 11.09 штиль 0
{3}
н/о н/о +12.0 +11.5 97 +11 +11 1010.2 979.7
01 11.09 штиль 0
{1}
н/о н/о +11.9 +11.6 98 +11 +11 1010.0 979.5
02 11.09 ЮВ 2
{2}
н/о н/о +12.0 +11.7 98 +11 +11 1009.0 978.6
03 11.09 ЮВ 2
{3}
н/о н/о +12.3 +11.8 97 +11 +11 1008.1 977.7
04 11.09 ЮВ 3
{5}
н/о н/о +12.2 +11.7 97 +10 +10 1007.2 976.9
05 11.09 ЮВ 4
{6}
н/о н/о +12.7 +11.9 95 +11 +11 1006.5 976.2
06 11.09 ЮВ 4
{7}
н/о н/о +13.1 +12.2 94 +11 +11 1005.5 975.3 +11.2 +13.1
07 11.09 ЮВ 5
{8}
н/о н/о +13.9 +12.6 92 +12 +12 1004.7 974.6
08 11.09 ЮВ 5
{9}
н/о н/о +14.3 +12.7 90 +13 +13 1004.1 974.1
09 11.09 ЮВ 5
{10}
н/о н/о +14.2 +12.9 92 +12 +12 1003.6 973.6
10 11.09 ЮВ 6
{10}
н/о н/о +14.2 +13.4 95 +12 +12 1003.1 973.1
11 11.09 ЮВ 5
{9}
н/о н/о +16.1 +13.4 84 +15 +15 1002.6 972.8
12 11.09 ЮВ 5
{10}
н/о н/о +15.8 +12.7 82 +15 +15 1002.2 972.4
13 11.09 ЮВ 4
{10}
н/о н/о +15.2 +8.5 64 +14 +14 1002.8 972.9
14 11.09 ЮВ 5
{11}
н/о н/о +13.3 +8.8 74 +11 +11 1003.0 972.9
15 11.09 В 6
{12}
н/о н/о +13.1 +9.0 76 +11 +11 1002.5 972.4
16 11.09 В 6
{9}
н/о н/о +12.8 +8.9 77 +10 +10 1002.4 972.3
17 11.09 ЮВ 4
{8}
н/о н/о +12.0 +9.7 86 +10 +10 1002.5 972.3
18 11.09 ЮВ 4
{12}
н/о н/о +12.0 +10.1 88 +10 +10 1002.8 972.6 +11.8 +16.2
19 11.09 ЮВ 5
{7}
н/о н/о +11.9 +9.8 87 +9 +9 1002.6 972.4
20 11.09 ЮВ 4
{6}
н/о н/о +11.8 +9.9 88 +10 +10 1002.6 972.4
21 11.09 ЮВ 3
{6}
н/о н/о +11.4 +10.0 91 +10 +10 1003.1 972.8
22 11.09 В 3
{6}
н/о н/о +10.3 +9.2 93 +8 +8 1003.2 972.8
23 11.09 ЮВ 2
{4}
н/о н/о +8.5 +8.2 98 +6 +6 1003.7 973.1
00 12.09 З 1
{7}
н/о н/о +7.1 +6.8 98 +6 +6 1004.1 973.3
01 12.09 СВ 1
{3}
н/о н/о +6.4 +6.3 99 +5 +5 1005.1 974.2
02 12.09 С 1
{2}
н/о н/о +6.1 +6.0 99 +5 +5 1006.0 975.0
03 12.09 ЮВ 1
{2}
н/о н/о +6.1 +6.0 99 +5 +5 1006.5 975.5
04 12.09 В 1
{3}
н/о н/о +5.1 +5.0 99 +4 +4 1006.9 975.8
05 12.09 В 1
{2}
н/о н/о +4.8 +4.7 99 +3 +3 1007.6 976.5
06 12.09 штиль 0
{3}
н/о н/о +5.2 +5.1 99 +4 +4 1008.3 977.2 +4.6 +12.0
07 12.09 СВ 1
{2}
н/о н/о +6.4 +6.3 99 +5 +5 1008.7 977.7
08 12.09 В 3
{6}
н/о н/о +9.4 +8.6 95 +7 +7 1008.6 977.9
09 12.09 В 5
{9}
н/о н/о +10.8 +8.0 83 +8 +8 1008.4 977.9
10 12.09 ЮВ 3
{5}
н/о н/о +12.0 +8.3 78 +10 +10 1008.3 977.9
11 12.09 Ю 3
{8}
н/о н/о +15.1 +6.9 58 +15 +15 1008.3 978.2
12 12.09 Ю 4
{10}
н/о н/о +14.6 +9.2 70 +13 +13 1008.7 978.6
13 12.09 В 4
{7}
н/о н/о +15.3 +10.9 75 +14 +14 1008.5 978.4
14 12.09 В 2
{7}
н/о н/о +15.7 +9.2 65 +16 +16 1007.8 977.8
15 12.09 Ю 3
{9}
н/о н/о +17.2 +5.8 47 +17 +17 1007.8 978.0
16 12.09 Ю 1
{6}
н/о н/о +15.6 +6.1 53 +16 +16 1007.9 977.9
17 12.09 С 1
{6}
н/о н/о +13.6 +6.5 62 +14 +14 1007.8 977.6
18 12.09 З 1
{9}
н/о н/о +11.6 +5.0 64 +12 +12 1008.5 978.1 +5.2 +17.9
19 12.09 СЗ 2
{4}
н/о н/о +10.5 +4.7 67 +9 +9 1009.0 978.4
20 12.09 В 2
{3}
н/о н/о +6.8 +4.5 85 +5 +5 1009.6 978.6
21 12.09 СВ 1
{3}
н/о н/о +6.1 +4.8 91 +5 +5 1010.0 978.9
22 12.09 ЮЗ 1
{2}
н/о н/о +5.1 +4.7 97 +4 +4 1010.4 979.2
23 12.09 ЮВ 1
{3}
н/о н/о +5.4 +5.0 97 +4 +4 1010.5 979.3
00 13.09 СЗ 1
{4}
н/о н/о +5.9 +4.9 93 +5 +5 1010.6 979.5
01 13.09 В 1
{3}
н/о н/о +5.0 +4.6 97 +4 +4 1011.4 980.2
02 13.09 Ю 1
{3}
н/о н/о +4.7 +4.3 97 +3 +3 1011.7 980.4
03 13.09 ЮВ 1
{2}
н/о н/о +2.8 +2.2 96 +1 +1 1012.3 980.8
04 13.09 СЗ 2
{8}
н/о н/о +3.8 +3.5 98 +1 +1 1012.6 981.2
05 13.09 СЗ 2
{5}
н/о н/о +5.0 +4.0 93 +2 +2 1013.1 981.8
06 13.09 Ю 1
{8}
н/о н/о +5.4 +3.1 85 +4 +4 1014.2 982.9 +2.6 +11.6
07 13.09 С 1
{3}
н/о н/о +7.8 +5.1 83 +7 +7 1014.2 983.2
08 13.09 С 2
{4}
н/о н/о +11.5 +4.0 60 +11 +11 1014.0 983.4
09 13.09 СЗ 3
{7}
н/о н/о +13.6 +3.4 50 +13 +13 1014.3 983.9
10 13.09 СЗ 3 н/о н/о +13.0 +2.6 49 +12 +12 1014.7 984.2
11 13.09 З 2 н/о н/о +15.9 +3.7 44 +16 +16 1014.8 984.6
12 13.09 З 2
{10}
н/о н/о +15.8 +1.5 38 +16 +16 1015.0 984.8
13 13.09 З 4 н/о н/о +16.9 +3.2 40 +16 +16 1015.1 985.0
14 13.09 СЗ 6 н/о н/о +15.9 +0.9 36 +15 +15 1015.5 985.3
15 13.09 СЗ 4 н/о н/о +15.3 +0.7 37 +15 +15 1015.9 985.6
16 13.09 З 1 н/о н/о +12.1 +2.3 51 +12 +12 1016.7 986.1
17 13.09 н/о н/о
18 13.09 ЮВ 1
{12}
н/о н/о +7.2 +3.6 78 +6 +6 1018.4 987.2 +17.5
19 13.09 ЮВ 1 н/о н/о +6.1 +3.4 83 +5 +5 1018.8 987.5
20 13.09 С 2 н/о н/о +5.9 +2.9 81 +4 +4 1019.3 987.9
21 13.09 В 1 н/о н/о +3.1 +1.8 91 +1 +1 1020.2 988.5
22 13.09 В 2 н/о н/о +3.4 +2.2 92 0 0 1020.5 988.8
23 13.09 В 1 н/о н/о +1.5 +0.9 96 -1 -1 1021.1 989.2
00 14.09 В 1
{3}
н/о н/о +0.6 +0.3 98 -2 -2 1021.5 989.4
01 14.09 СВ 1
{3}
н/о н/о +0.3 0.0 98 -2 -2 1021.9 989.8
02 14.09 З 1
{2}
н/о н/о -0.1 -0.2 99 -2 -2 1022.1 989.9
03 14.09 Ю 1 н/о н/о -0.7 -0.8 99 -3 -3 1022.3 990.1
04 14.09 СВ 1
{3}
н/о н/о -1.3 -1.5 99 -4 -4 1022.4 990.1
05 14.09 ЮВ 1
{2}
н/о н/о -1.2 -1.3 99 -4 -4 1022.7 990.4
06 14.09 З 1
{3}
н/о н/о 0.0 -0.1 99 -2 -2 1022.7 990.5 -1.9 +7.2
07 14.09 С 1 н/о н/о +2.4 +2.3 99 +1 +1 1022.1 990.2
08 14.09 ЮВ 1
{2}
н/о н/о +5.8 +3.2 83 +5 +5 1021.5 990.0
09 14.09 В 4
{7}
н/о н/о +9.0 +3.6 69 +6 +6 1020.5 989.4
10 14.09 ЮВ 4
{5}
н/о н/о +12.0 +5.0 62 +10 +10 1019.5 988.7
11 14.09 В 4
{7}
н/о н/о +13.3 +4.0 53 +12 +12 1018.7 988.1
12 14.09 ЮЗ 2
{7}
н/о н/о +13.6 +1.9 45 +13 +13 1017.7 987.2
13 14.09 ЮЗ 2
{7}
н/о н/о +13.0 +2.0 47 +13 +13 1017.0 986.4
14 14.09 Ю 3
{8}
н/о н/о +12.4 +2.9 52 +11 +11 1016.5 985.9
15 14.09 ЮВ 3
{8}
н/о н/о +11.1 +4.6 64 +9 +9 1015.2 984.5
16 14.09 ЮВ 4
{7}
н/о н/о +10.0 +4.8 70 +7 +7 1014.0 983.2
17 14.09 ЮВ 4
{8}
н/о н/о +8.3 +6.6 89 +5 +5 1012.5 981.6
18 14.09 ЮВ 6
{11}
н/о н/о +8.0 +6.9 93 +4 +4 1010.2 979.3 -0.1 +14.3
19 14.09 ЮВ 6
{10}
н/о н/о +8.0 +7.3 95 +4 +4 1007.9 977.1
20 14.09 ЮВ 4
{10}
н/о н/о +8.5 +7.4 93 +5 +5 1005.8 975.1
21 14.09 ЮВ 4
{10}
н/о н/о +9.3 +7.6 89 +6 +6 1003.8 973.3
22 14.09 Ю 5
{12}
н/о н/о +9.6 +6.9 83 +6 +6 1002.6 972.1
23 14.09 ЮВ 5
{11}
н/о н/о +10.2 +6.0 75 +7 +7 1000.3 970.0
00 15.09 В 4
{12}
н/о н/о +9.9 +5.7 75 +7 +7 998.8 968.5
01 15.09 ЮВ 4
{7}
н/о н/о +8.4 +5.2 80 +5 +5 997.5 967.1
02 15.09 ЮВ 4
{7}
н/о н/о +7.7 +4.5 80 +4 +4 996.6 966.1
03 15.09 ЮВ 2
{6}
н/о н/о +6.6 +4.3 85 +4 +4 995.7 965.1
04 15.09 ЮВ 2
{5}
н/о н/о +5.5 +3.2 85 +3 +3 995.1 964.4
05 15.09 Ю 2
{6}
н/о н/о +5.3 +3.6 89 +3 +3 994.3 963.6
06 15.09 Ю 2
{7}
н/о н/о +7.9 +2.0 66 +6 +6 994.1 963.7 +4.1 +10.4
07 15.09 В 2
{6}
н/о н/о +9.0 +1.9 61 +8 +8 993.7 963.4
08 15.09 ЮВ 4
{7}
н/о н/о +11.0 +1.8 53 +9 +9 993.0 963.0
09 15.09 З 2
{9}
н/о н/о +13.7 +1.1 42 +13 +13 992.2 962.5
10 15.09 ЮЗ 1
{7}
н/о н/о +12.5 +2.1 49 +13 +13 991.8 962.0
11 15.09 З 2
{9}
н/о н/о +15.3 +3.8 46 +15 +15 991.3 961.7
12 15.09 З 3
{10}
н/о н/о +15.8 +2.9 42 +15 +15 990.7 961.2
13 15.09 З 3
{10}
н/о н/о +16.7 +4.1 43 +17 +17 990.4 961.0
14 15.09 З 3
{9}
н/о н/о +16.5 +4.6 45 +16 +16 990.1 960.7
15 15.09 З 3
{10}
н/о н/о +16.1 +3.9 44 +16 +16 990.2 960.8
16 15.09 СЗ 2
{8}
н/о н/о +13.4 +3.8 52 +13 +13 990.9 961.2
17 15.09 С 1
{6}
н/о н/о +11.9 +6.6 70 +12 +12 991.4 961.5
18 15.09 СЗ 2
{10}
н/о н/о +9.3 +6.6 83 +8 +8 992.6 962.4 +7.9 +17.1
19 15.09 СЗ 3
{6}
н/о н/о +8.2 +4.4 77 +6 +6 993.8 963.4
20 15.09 СЗ 3
{11}
н/о н/о +9.8 +3.3 64 +8 +8 994.7 964.5
21 15.09 СЗ 5
{15}
н/о н/о +10.3 +3.1 61 +8 +8 995.3 965.1
22 15.09 З 4
{11}
н/о н/о +10.1 +3.2 62 +8 +8 996.7 966.5
23 15.09 СЗ 7
{14}
н/о н/о +9.8 +2.4 60 +6 +6 997.6 967.3
00 16.09 СЗ 4
{15}
н/о н/о +8.9 +2.3 63 +6 +6 998.7 968.3
01 16.09 СЗ 4
{13}
н/о н/о +8.6 +1.1 59 +6 +6 999.5 969.0
02 16.09 СЗ 3
{11}
н/о н/о +8.0 0.0 57 +6 +6 1000.4 969.8
03 16.09 СЗ 3
{9}
н/о н/о +8.1 -1.4 51 +6 +6 1000.8 970.2
04 16.09 З 2
{7}
н/о н/о +6.7 -0.3 61 +5 +5 1001.3 970.6
05 16.09 З 4
{10}
н/о н/о +7.7 +0.2 59 +5 +5 1001.4 970.8

 

Местоположение метеостанции Эвенстад (Норвегия): широта 61.42 долгота 11.08 высота над уровнем моря 257 м.

В архиве по умолчанию представлена погода в Эвенстаде за последнюю неделю. Архивные данные за месяц целиком и за предыдущие месяцы, начиная с января 2011 года, Вы можете получить, выбрав интересующий диапазон дат из раскрывающегося списка и нажав кнопку "Ввод!".


*Определитесь, кто Вы:
робот инопланетянин человек

Внимание! Время в таблицах - всемирное. Для получения местного времени необходимо прибавить поправку, которая равна 1 ч.

Смотрите также архив погоды в соседних городах и на ближайших метеорологических станциях:

Погода в Рена аэропорту (Норвегия) (30 км)
Погода в Фаванге (Норвегия) (48 км)
Погода в Лиллехаммере (Норвегия) (49 км)
Погода в Квитфеле (Норвегия) (51 км)
Погода в Венабу (Норвегия) (58 км)
Погода в Трюсиль Вегстасьон (Норвегия) (65 км)
Погода в Хамар аэропорту (Норвегия) (67 км)
Погода в Хамаре (Норвегия) (69 км)
Погода в Древсё (Норвегия) (73 км)
Погода в Кисе Па Хедмарк (Норвегия) (74 км)

Пояснения к столбцам:

Ветер - указаны скорость ветра в м/с - средняя за 10 мин, порывы в срок и между сроками (в фигурных скобках) и направление, откуда дует ветер: С - северный, СВ - северо-восточный, В - восточный, ЮВ - юго-восточный, Ю - южный, ЮЗ - юго-западный, З - западный, СЗ - северо-западный.
Видимость - горизонтальная дальность видимости в метрах или километрах. При видимости от 1 до 10 км при отсутствии осадков обычно наблюдается дымка, при ухудшении видимости до 1 км и менее - туман. В сухую погоду видимость может ухудшаться дымом, пылью или мглою.
Явления - указаны атмосферные явления, наблюдавшиеся в срок или в последний час перед сроком; фигурными скобками обозначены явления, наблюдавшиеся между сроками (за 1-3 часа до срока); квадратными скобками обозначены град или гололедные отложения с указанием их диаметра в мм.
Облачность - указаны через наклонную черту общая и нижняя облачность в баллах и высота нижней границы облаков в метрах; квадратными скобками обозначены формы облаков: Ci - перистые, Cs - перисто-слоистые, Cc - перисто-кучевые, Ac - высококучевые, As - высокослоистые, Sc - слоисто-кучевые, Ns - слоисто-дождевые, Cu - кучевые, Cb - кучево-дождевые. Подробнее классификацию облаков см. в Атласе облаков (PDF).
T - Температура воздуха - температура, измеренная на высоте 2 м над землей.
Td - Температура точки росы - температура, при понижении до которой содержащийся в воздухе водяной пар достигнет насыщения.
f - Относительная влажность воздуха - влажноcть воздуха, измеренная на высоте 2 м над землей.
Te - Эффективная температура - температура, которую ощущает одетый по сезону человек в тени. Характеристика душности погоды. При расчете учитывается влияние влажности воздуха и скорости ветра на теплоощущения человека.
Tes - Эффективная температура на солнце - температура, которую ощущает человек, с поправкой на солнечный нагрев. Характеристика знойности погоды. Зависит от высоты солнца над горизонтом, облачности и скорости ветра. Ночью, в пасмурную погоду, а также при ветре 12 м/с и более поправка равна нулю.
P - Атмосферное давление - приведенное к уровню моря атмосферное давление.
Po - Атмосферное давление - измеренное на уровне метеостанции атмосферное давление.
Tmin - Минимальная температура - минимум температуры воздуха на высоте 2 м над землей.
Tmax - Максимальная температура - максимум температуры воздуха на высоте 2 м над землей.
R - Количество осадков - Количество выпавших осадков за период времени, мм. При наведении курсора мыши на число - период времени, за который выпало указанное количество осадков.
R24 - Количество осадков - Количество выпавших осадков за 24 часа, мм.
S - Снежный покров - Высота снежного покрова, см. При наведении курсора мыши на число - состояние снежного покрова и степень покрытия местности в баллах.